This demonstration page uses our WeatherBlox Daily Observations layout. Learn more.

39.01783, -85.05884

Hourly Observations for November 26, 2019

Temp ( °F °C ) Dew Point ( °F °C ) Humidity (%) Winds ( mph kmh ) Pressure ( in mb ) Visibility ( mi km ) Precip ( " mm )
12:52 am 00:52 Clear 45 7.2 36 2.2 71 71 SSW 8 13 29.82 1010 10 16.0934 0 0
1:52 am 01:52 Clear 44 6.7 35 1.7 71 71 SSW 7 11 29.83 1010 10 16.0934 0 0
2:52 am 02:52 Clear 41 5 34 1.1 76 76 S 8 13 29.85 1011 9 14.48406 0 0
3:52 am 03:52 Mostly Clear 41 5 35 1.7 79 79 S 8 13 29.86 1011 10 16.0934 0 0
4:52 am 04:52 Mostly Cloudy 42 5.6 36 2.2 79 79 S 8 13 29.86 1011 10 16.0934 0 0
5:52 am 05:52 Mostly Clear 41 5 35 1.7 79 79 S 8 13 29.86 1011 10 16.0934 0 0
6:52 am 06:52 Clear 42 5.6 36 2.2 79 79 S 9 15 29.87 1011 10 16.0934 0 0
7:52 am 07:52 Mostly Cloudy 43 6.1 37 2.8 80 80 S 12 19 29.89 1012 10 16.0934 0 0
8:52 am 08:52 Partly Cloudy 46 7.8 39 3.9 77 77 S 12 19 29.9 1013 10 16.0934 0 0
9:52 am 09:52 Partly Cloudy 50 10 40 4.4 68 68 S 12 19 29.92 1013 10 16.0934 0 0
10:52 am 10:52 Mostly Cloudy 55 12.8 41 5 59 59 S 9 15 29.92 1013 10 16.0934 0 0
11:52 am 11:52 Mostly Cloudy 56 13.3 41 5 57 57 SSE 12 19 29.9 1012 10 16.0934 0 0
12:52 pm 12:52 Cloudy 57 13.9 42 5.6 58 58 SSE 9 15 29.87 1012 10 16.0934 0 0
1:52 pm 13:52 Cloudy 57 13.9 43 6.1 60 60 SSE 10 17 29.86 1011 10 16.0934 0 0
2:52 pm 14:52 Cloudy 57 13.9 43 6.1 60 60 SSE 14 22 29.85 1011 10 16.0934 0 0
3:52 pm 15:52 Cloudy 55 12.8 42 5.6 62 62 SSE 14 22 29.84 1011 10 16.0934 0 0
4:52 pm 16:52 Cloudy 54 12.2 42 5.6 64 64 SSE 15 24 29.83 1010 10 16.0934 0 0
5:52 pm 17:52 Cloudy 55 12.8 40 4.4 57 57 SSE 20 31 29.82 1010 10 16.0934 0 0
6:52 pm 18:52 Cloudy 54 12.2 39 3.9 57 57 SSE 15 24 29.81 1009 10 16.0934 0 0
7:52 pm 19:52 Cloudy 54 12.2 39 3.9 57 57 S 10 17 29.83 1010 10 16.0934 0 0
8:09 pm 20:09 Cloudy 55 12.8 39 3.9 55 55 S 8 13 29.84 1011 10 16.0934 0 0
8:42 pm 20:42 Cloudy with Light Rain 52 11.1 42 5.6 69 69 S 10 17 29.85 1011 9 14.48406 0.001 0.001
8:52 pm 20:52 Cloudy with Light Rain 51 10.6 43 6.1 74 74 S 9 15 29.83 1010 10 16.0934 0.01 0.254
9:52 pm 21:52 Cloudy with Light Rain 50 10 44 6.7 80 80 SSE 14 22 29.78 1008 9 14.48406 0.01 0.254
10:52 pm 22:52 Cloudy with Rain 50 10 46 7.8 86 86 S 13 20 29.78 1009 6 9.65604 0.04 1.016
11:52 pm 23:52 Cloudy with Rain 50 10 48 8.9 93 93 S 14 22 29.75 1008 5 8.0467 0.12 3.048

Powered by AerisWeather